SCP
1 1 1 1 0 0 0 0 0 0 0 0 1 0 0 0 0 1 1 1 1 1 1 1 1 1 1 1 1 0 0 0 0 0 0 1 1 1 0 0 0 0 0
1 1 1 0 0 0 0 0 0 0 0 0 1 1 0 0 1 1 1 1 1 1 1 1 1 1 1 1 1 1 1 0 0 0 0 1 1 1 0 0 0 0 0
1 1 1 0 0 0 0 0 0 0 0 0 0 1 1 1 1 1 1 1 1 1 1 1 0 0 1 1 1 1 1 0 0 0 0 1 1 1 0 0 0 0 0
1 1 0 0 0 0 0 0 0 0 0 0 0 1 1 1 1 1 1 0 0 0 0 0 0 0 0 0 1 1 1 1 1 0 0 0 0 0 0 0 0 0 0
0 1 1 0 0 0 0 0 0 0 0 0 0 1 1 0 1 1 0 0 0 0 0 0 0 0 0 0 0 0 1 1 1 0 0 0 0 0 0 0 0 0 0
0 1 1 1 0 0 0 0 0 0 0 0 0 1 1 0 0 0 0 0 0 0 0 0 0 0 0 0 0 1 1 1 0 0 0 0 0 0 0 0 0 0 0
0 1 1 1 1 0 0 0 0 0 0 0 0 0 1 0 0 0 0 0 0 0 0 0 0 0 0 1 1 1 1 1 0 0 0 0 0 0 0 0 0 0 0
0 1 1 1 1 0 0 0 0 0 0 0 0 0 0 0 0 0 0 0 0 0 0 0 0 0 0 1 1 1 1 1 0 0 0 0 0 0 0 0 0 0 0
0 0 1 1 0 0 0 0 0 0 0 0 0 0 0 0 0 0 0 0 0 0 0 0 0 0 1 1 1 1 1 1 0 0 0 0 0 0 0 0 0 0 0
0 0 0 0 0 0 0 0 0 0 0 0 0 0 0 0 0 0 0 0 0 0 0 0 0 0 1 1 1 1 1 0 0 0 0 0 0 0 0 0 0 0 0
1 0 0 0 0 0 0 0 0 0 0 0 0 0 0 0 0 0 0 0 0 0 0 0 0 0 1 1 1 1 1 0 0 0 0 0 0 0 0 0 0 0 0
1 1 0 0 0 0 0 0 0 0 0 0 0 0 0 0 0 0 0 0 0 0 0 0 0 0 0 0 0 1 0 0 0 0 0 0 0 0 0 0 0 0 0
1 1 1 0 0 0 0 0 0 0 0 0 0 0 0 0 0 0 0 0 0 0 0 0 0 0 0 0 0 0 0 0 0 0 0 0 0 0 0 0 0 0 0
1 1 1 0 0 0 0 0 0 0 0 0 0 0 0 0 0 0 0 0 0 0 0 0 0 0 0 0 0 0 0 0 0 0 0 0 0 0 0 0 0 0 0
1 1 1 1 0 0 0 0 0 0 0 0 0 0 0 0 0 0 0 0 0 0 0 0 0 0 0 0 0 0 0 0 0 0 0 0 0 0 0 0 0 0 0
1 1 1 1 1 0 0 0 0 0 0 0 0 0 0 0 0 0 0 0 0 0 0 0 0 0 0 0 0 0 0 0 0 0 0 0 0 0 0 0 0 0 0
1 1 1 1 1 0 0 0 0 0 0 0 0 1 1 1 0 0 0 0 0 0 0 0 0 0 0 0 0 0 0 0 0 0 0 0 0 0 0 0 0 0 0
1 1 1 1 1 1 1 0 0 0 0 0 0 1 1 1 0 0 0 0 0 0 0 0 0 0 0 0 0 0 0 0 0 0 0 0 0 0 0 0 0 0 0
2 1 1 1 1 1 1 1 1 1 1 1 0 1 1 1 1 1 1 1 0 0 0 0 0 0 0 0 0 0 0 0 0 0 0 0 0 0 0 0 0 0 0
3 2 1 1 1 1 1 1 1 1 1 1 1 1 1 1 1 1 1 1 0 0 0 0 0 0 0 0 0 0 0 0 0 0 0 0 0 0 0 0 0 0 0
3 3 2 1 1 1 1 1 1 1 1 1 1 1 1 1 1 1 0 0 0 0 0 0 0 0 0 0 0 0 0 0 0 0 0 0 0 0 0 0 0 0 0
3 3 2 2 1 1 1 1 1 1 1 1 1 1 1 1 1 1 0 0 0 0 0 0 0 0 0 0 0 0 0 0 0 0 0 0 0 0 0 0 0 0 0
3 3 2 2 1 1 1 1 1 1 1 1 1 1 1 1 1 1 1 1 1 1 1 1 1 0 0 0 0 0 0 0 0 0 0 0 0 0 0 0 0 0 0
3 3 3 2 2 1 1 1 1 1 1 1 1 1 1 1 1 1 1 1 1 1 1 1 1 1 1 1 0 0 0 0 0 0 0 0 0 0 0 0 0 0 0
3 3 4 4 3 2 1 1 1 1 1 1 1 1 1 1 1 1 1 1 1 1 1 1 1 1 1 1 1 0 0 0 0 0 0 0 0 0 0 0 0 0 0
3 4 5 5 4 3 2 1 1 1 1 1 1 1 1 1 1 1 1 1 1 1 1 1 1 1 1 1 1 0 0 0 0 0 0 0 0 0 0 0 0 0 0
Wind_Speed
1 1 7 10 12 13 14 15 15 16 16 16 16 16 15 15 15 15 15 16 16 16 16 17 17 16 16 16 16 15 15 15 15 15 15 15 14 14 14 15 14 11 15
1 2 7 10 12 13 13 14 14 15 15 15 15 15 15 15 15 15 15 15 15 16 16 16 16 16 16 15 15 14 14 14 14 14 14 13 14 13 14 14 13 10 15
3 3 6 10 11 12 13 13 14 14 15 15 16 15 15 15 15 15 15 15 15 16 16 15 15 15 15 15 14 14 13 13 13 13 13 8 10 13 13 14 14 14 14
4 3 5 10 11 12 13 13 13 14 14 14 15 15 15 15 15 15 15 15 14 15 15 15 15 15 14 14 13 13 13 13 13 13 7 7 7 12 13 14 14 14 14
4 3 5 10 11 12 12 12 12 13 13 14 14 14 14 15 15 15 15 15 14 14 14 14 14 13 13 13 12 12 12 12 13 10 7 6 6 11 13 13 13 13 13
3 3 5 10 11 11 11 11 12 12 13 13 13 13 14 14 14 14 14 14 13 13 13 12 12 12 12 11 11 11 12 12 11 7 7 6 6 10 12 13 13 13 12
3 2 4 9 10 10 10 11 11 11 12 12 12 13 13 13 13 13 13 13 12 12 12 11 11 11 10 10 11 11 12 13 8 7 6 5 6 10 12 12 12 12 12
4 3 3 8 9 9 9 10 10 11 11 12 12 12 12 12 12 12 12 12 12 11 10 10 10 10 10 10 11 12 13 12 9 8 6 5 8 10 12 12 11 11 11
3 3 3 3 5 7 8 8 9 9 10 11 11 11 12 11 11 11 11 11 11 10 10 9 9 9 9 10 11 11 12 12 7 5 7 4 8 10 11 11 11 11 11
3 3 3 3 4 3 4 7 8 8 9 10 10 10 10 10 10 10 8 9 10 9 9 9 8 9 9 9 10 10 11 10 6 6 4 5 9 10 10 10 10 10 11
3 1 2 2 3 2 2 4 5 7 7 8 7 9 8 5 5 5 6 8 8 8 8 8 8 8 8 7 8 9 8 4 6 4 4 7 9 9 10 10 10 10 10
4 3 2 2 2 2 2 3 3 3 4 4 4 4 4 3 3 4 5 7 7 7 7 7 7 7 6 3 5 6 3 5 4 3 4 8 8 9 9 9 9 9 9
5 4 3 3 2 2 2 2 2 2 2 3 3 3 3 3 3 3 2 3 4 5 4 5 5 3 3 3 2 3 4 4 3 3 4 7 8 9 9 8 9 9 9
5 5 4 3 3 2 2 2 2 1 1 1 1 2 2 2 2 2 1 2 2 2 2 3 2 3 3 3 3 3 4 3 2 2 3 7 7 8 9 8 8 8 8
6 6 5 5 4 3 2 2 2 1 1 1 1 1 2 1 1 1 1 1 2 2 2 2 2 3 3 3 2 3 3 3 3 2 2 6 7 7 8 9 8 8 8
8 7 6 6 5 4 3 2 2 2 1 1 1 1 1 1 1 1 1 1 1 1 1 1 2 2 2 2 2 2 2 3 3 2 2 3 5 7 8 8 9 9 9
8 7 6 6 5 5 4 4 2 2 2 2 1 1 2 2 2 1 1 0 0 1 2 2 2 2 2 2 2 2 2 2 2 2 2 1 2 5 7 7 8 9 9
6 6 6 7 6 5 4 4 2 2 3 2 1 1 2 2 2 2 1 1 1 1 1 1 1 2 2 2 1 1 1 1 2 2 2 2 2 2 5 7 8 9 10
7 7 6 5 6 5 4 3 2 2 2 2 2 2 2 3 3 2 2 1 1 1 1 1 1 1 1 1 1 1 0 1 1 2 2 3 3 3 3 5 7 8 9
7 7 6 5 5 5 3 2 1 1 1 2 2 3 3 3 4 3 2 2 2 1 1 1 2 1 1 1 1 1 0 1 1 1 2 2 3 4 4 4 4 5 8
7 7 7 7 5 5 3 3 2 2 2 2 2 3 3 3 4 3 2 2 2 2 2 2 2 1 1 1 2 2 2 1 1 1 2 2 3 4 4 5 4 3 3
9 9 8 8 7 6 4 3 2 2 1 2 2 2 3 3 3 3 3 2 2 2 2 2 2 1 0 1 2 1 2 3 2 1 1 2 3 3 4 5 5 5 4
10 10 9 8 7 6 5 3 2 2 1 1 1 1 2 3 3 3 3 3 2 2 2 3 3 3 1 0 1 2 2 1 2 2 1 2 2 2 3 3 5 5 6
11 9 8 8 7 6 6 5 5 4 3 4 2 2 2 3 3 4 3 3 3 2 3 3 3 2 3 1 1 1 1 2 1 1 2 1 2 3 3 3 4 5 5
8 8 7 7 6 6 6 6 5 4 3 2 2 3 2 2 3 3 4 3 3 3 3 3 3 3 3 3 2 2 1 1 1 2 2 2 2 2 3 4 3 3 4
7 7 7 7 7 6 6 6 6 6 5 3 3 3 2 2 2 3 4 4 4 3 4 4 4 4 3 3 2 2 2 2 2 2 3 3 3 3 3 3 3 4 4
Wind_Direction
15 36 86 83 83 86 87 86 86 89 90 92 95 96 98 104 108 109 110 110 111 112 115 116 116 116 116 115 113 111 112 112 113 114 114 114 113 113 114 113 111 110 113
115 83 95 89 86 87 89 89 88 89 89 91 96 96 98 103 105 106 107 108 109 110 112 114 114 115 115 114 113 112 112 112 111 112 115 114 113 114 117 117 115 116 117
92 83 97 94 90 90 91 92 91 90 90 91 93 94 95 100 101 101 103 106 107 109 110 112 113 114 115 115 114 113 111 111 111 111 110 107 111 115 118 118 117 116 116
96 87 100 101 96 94 93 93 92 91 92 93 94 95 96 98 100 99 100 102 104 107 109 110 112 114 115 116 115 114 112 111 110 108 99 104 112 118 119 118 118 118 119
89 87 108 104 100 97 95 94 93 93 92 95 95 95 96 97 98 98 99 99 100 104 108 110 112 115 115 116 117 117 117 116 109 103 95 95 103 119 120 120 120 121 121
92 89 111 108 104 100 96 95 94 94 93 94 96 97 97 98 98 98 98 98 98 100 105 109 112 113 114 116 118 119 120 117 107 101 100 103 108 119 121 122 123 123 122
103 91 108 110 107 103 98 98 98 97 96 96 97 96 98 99 99 98 97 98 97 97 100 105 110 112 114 115 120 124 123 120 110 106 105 106 116 122 123 123 123 123 123
107 89 96 112 110 105 100 100 101 99 99 100 100 98 100 100 99 98 98 97 96 95 96 104 110 113 114 114 118 124 126 125 118 117 111 111 124 128 127 126 126 126 127
90 79 67 78 95 103 103 102 101 102 101 102 103 101 100 100 98 97 95 96 95 94 93 99 108 113 114 115 117 125 128 126 119 122 122 118 129 132 132 132 132 131 132
90 81 77 70 66 70 90 105 104 105 105 105 105 102 98 97 97 95 92 95 93 91 91 93 102 112 113 118 123 127 126 123 120 120 121 131 134 136 137 136 135 135 135
139 103 94 89 81 80 88 107 100 102 98 97 97 99 85 65 66 81 91 94 91 88 86 87 94 103 104 105 115 124 122 119 124 123 128 142 143 144 143 140 140 141 140
180 174 148 131 119 101 104 80 60 67 68 70 69 75 73 67 60 70 71 83 83 79 76 77 86 90 90 88 100 109 116 125 126 132 144 153 153 151 148 148 147 148 146
182 179 171 165 147 125 94 94 70 61 64 70 74 77 76 67 57 50 44 48 48 54 50 55 59 64 79 88 95 110 127 128 135 145 156 163 163 161 159 158 157 155 155
178 187 177 171 158 146 124 108 102 86 79 79 78 91 88 76 63 55 50 42 43 45 48 50 55 58 73 82 100 111 126 134 140 145 167 172 174 171 169 168 167 166 163
186 190 182 176 173 164 150 148 140 142 134 122 99 104 113 105 94 71 55 50 44 48 53 49 49 55 64 75 87 110 129 141 144 148 167 183 185 183 179 178 176 174 171
191 192 183 181 179 169 169 172 164 165 160 147 148 159 146 139 138 114 70 47 36 44 55 59 53 60 66 81 86 106 131 144 152 160 174 197 197 192 191 187 185 184 179
190 187 184 185 175 174 179 184 178 175 171 176 181 175 162 164 166 152 127 80 29 56 66 66 60 62 70 81 81 100 128 153 160 172 180 192 206 204 198 196 196 194 186
183 183 189 190 175 181 183 182 178 178 176 181 178 176 180 176 166 155 150 171 131 91 92 95 78 72 55 65 69 60 98 166 197 197 200 206 206 212 210 206 202 197 198
185 182 183 187 175 180 182 179 178 170 175 180 173 179 189 178 173 170 174 175 136 113 105 113 87 97 82 66 85 85 134 227 236 224 217 218 213 212 209 222 218 210 209
180 180 183 184 181 168 158 150 145 156 180 187 183 187 185 180 178 170 172 172 145 124 106 99 101 84 99 100 63 53 337 278 258 246 237 226 218 219 220 227 227 226 223
178 179 185 185 184 166 156 163 165 189 194 200 208 197 187 185 182 172 170 170 167 162 168 157 124 106 72 87 72 25 359 343 280 262 248 236 235 230 224 225 226 229 233
185 188 188 191 188 182 179 166 157 155 181 196 201 200 197 192 191 184 175 180 178 167 163 164 148 135 104 112 118 85 8 348 333 291 254 231 239 231 231 229 225 225 227
192 191 193 194 188 182 167 135 107 91 73 124 196 211 213 199 194 191 187 183 184 183 188 190 177 166 171 163 147 144 149 238 307 322 287 252 243 231 237 232 229 228 227
197 189 187 185 183 178 168 168 170 178 193 210 202 205 215 203 200 200 198 188 198 197 201 205 191 176 169 192 172 177 182 173 185 304 316 289 262 251 250 243 240 230 227
189 183 185 179 181 182 183 183 183 194 201 199 196 202 214 216 212 206 198 192 207 211 216 213 194 191 184 186 183 173 168 174 193 203 277 307 300 263 250 245 246 243 236
177 178 180 179 190 186 187 188 194 199 192 188 203 207 214 221 225 216 199 200 207 215 220 219 210 206 203 196 194 189 184 189 199 195 231 265 281 284 266 248 242 244 241